TimeMDT,TemperatureF,Dew PointF,Humidity,Sea Level PressureIn,VisibilityMPH,Wind Direction,Wind SpeedMPH,Gust SpeedMPH,PrecipitationIn,Events,Conditions,WindDirDegrees,DateUTC
12:53 AM,21.0,17.1,85,30.53,10.0,Calm,Calm,-,N/A,,Clear,0,2012-10-06 06:53:00
1:53 AM,19.0,16.0,88,30.53,10.0,Calm,Calm,-,N/A,,Clear,0,2012-10-06 07:53:00
2:53 AM,19.0,15.1,85,30.52,10.0,WNW,3.5,-,N/A,,Clear,300,2012-10-06 08:53:00
3:53 AM,18.0,15.1,88,30.51,10.0,Calm,Calm,-,N/A,,Clear,0,2012-10-06 09:53:00
4:53 AM,18.0,14.0,84,30.50,10.0,Calm,Calm,-,N/A,,Clear,0,2012-10-06 10:53:00
5:53 AM,18.0,14.0,84,30.50,10.0,Calm,Calm,-,N/A,,Clear,0,2012-10-06 11:53:00
6:53 AM,17.1,12.9,84,30.51,10.0,Calm,Calm,-,N/A,,Clear,0,2012-10-06 12:53:00
7:53 AM,19.4,15.8,86,30.40,10.0,Calm,Calm,-,N/A,,Clear,0,2012-10-06 13:53:00
8:53 AM,24.1,19.9,84,30.49,10.0,Calm,Calm,-,N/A,,Clear,0,2012-10-06 14:53:00
9:53 AM,30.9,25.0,79,30.45,10.0,Variable,3.5,-,N/A,,Clear,0,2012-10-06 15:53:00
10:53 AM,39.9,28.9,65,30.43,10.0,WSW,5.8,-,N/A,,Clear,240,2012-10-06 16:53:00
11:53 AM,46.9,25.0,42,30.39,10.0,SW,15.0,-,N/A,,Clear,230,2012-10-06 17:53:00
12:53 PM,48.0,21.9,36,30.36,10.0,SW,13.8,23.0,N/A,,Clear,220,2012-10-06 18:53:00
1:53 PM,48.9,21.9,35,30.33,10.0,WSW,15.0,23.0,N/A,,Clear,250,2012-10-06 19:53:00
2:53 PM,50.0,21.9,33,30.29,10.0,WSW,11.5,19.6,N/A,,Clear,240,2012-10-06 20:53:00
3:53 PM,51.1,21.0,31,30.25,10.0,SW,11.5,21.9,N/A,,Clear,230,2012-10-06 21:53:00
5:53 PM,48.9,21.9,35,30.22,10.0,WSW,9.2,-,N/A,,Clear,250,2012-10-06 23:53:00
6:53 PM,43.0,23.0,45,30.22,10.0,WSW,3.5,-,N/A,,Clear,250,2012-10-07 00:53:00
7:53 PM,37.0,25.0,62,30.19,10.0,SSW,3.5,-,N/A,,Clear,210,2012-10-07 01:53:00
8:53 PM,30.9,23.0,72,30.19,10.0,Calm,Calm,-,N/A,,Clear,0,2012-10-07 02:53:00
9:53 PM,28.0,21.9,78,30.17,10.0,Calm,Calm,-,N/A,,Clear,0,2012-10-07 03:53:00
10:53 PM,24.1,21.0,88,30.15,10.0,WNW,4.6,-,N/A,,Clear,290,2012-10-07 04:53:00
11:53 PM,26.1,21.0,81,30.12,10.0,WSW,3.5,-,N/A,,Clear,250,2012-10-07 05:53:00